Location: Trondheim
(63.4170°N, 10.4170°E)
Time: 18:18:30
(UTC+02:00)

Iridium 82 - Visible Passes

Search period start: 05 September 2015 00:00
Search period end: 15 September 2015 00:00
Orbit: 776 x 779 km, 86.4° (Epoch: 05 September)

Date Brightness Start Highest point End Pass type
(mag) Time Alt. Az. Time Alt. Az. Time Alt. Az.
05 Sep 8.2 01:11:26 10° WNW 01:14:16 14° NW 01:16:58 10° NNW visible
05 Sep 6.1 21:12:49 10° SSE 21:17:35 38° E 21:22:25 10° NNE visible
05 Sep 6.1 22:53:03 10° SSW 22:58:13 59° WNW 23:03:25 10° N visible
06 Sep 8.0 00:36:27 10° W 00:40:09 19° NW 00:43:46 10° N visible
06 Sep 5.6 22:19:20 10° S 22:24:34 84° W 22:29:51 10° N visible
07 Sep 7.6 00:01:49 10° WSW 00:06:08 25° WNW 00:10:25 10° N visible
07 Sep 5.5 21:45:51 10° S 21:51:02 68° E 21:56:15 10° N visible
07 Sep 7.1 23:27:28 10° SW 23:32:13 34° WNW 23:36:59 10° N visible
08 Sep 8.3 01:12:40 10° WNW 01:14:45 12° NW 01:16:42 10° NNW visible
08 Sep 5.9 21:12:37 10° SSE 21:17:35 47° E 21:22:36 10° NNE visible
08 Sep 6.5 22:53:22 10° SSW 22:58:25 47° WNW 23:03:29 10° N visible
09 Sep 8.2 00:37:22 10° W 00:40:34 16° NW 00:43:41 10° N visible
09 Sep 5.9 22:19:30 10° SSW 22:24:43 68° WNW 22:29:58 10° N visible
10 Sep 7.9 00:02:32 10° WSW 00:06:30 21° NW 00:10:24 10° N visible
10 Sep 5.5 21:45:53 10° S 21:51:07 85° E 21:56:23 10° N visible
10 Sep 7.5 23:28:01 10° WSW 23:32:32 28° WNW 23:37:01 10° N visible
11 Sep 8.6 01:14:29 10° NW 01:15:15 10° NW 01:15:53 10° NNW visible
11 Sep 5.6 21:12:29 10° SSE 21:17:36 59° E 21:22:46 10° N visible
11 Sep 6.9 22:53:46 10° SW 22:58:39 39° WNW 23:03:33 10° N visible
12 Sep 8.3 00:38:27 10° WNW 00:41:02 13° NW 00:43:30 10° NNW visible
12 Sep 6.0 20:39:21 10° SSE 20:44:11 41° E 20:49:05 10° NNE visible
12 Sep 6.3 22:19:45 10° SSW 22:24:53 55° WNW 22:30:03 10° N visible
13 Sep 8.2 00:03:22 10° W 00:06:54 18° NW 00:10:21 10° N visible
13 Sep 5.7 21:46:00 10° SSW 21:51:14 78° W 21:56:30 10° N visible
13 Sep 7.8 23:28:40 10° WSW 23:32:52 23° WNW 23:37:01 10° N visible
14 Sep 5.5 21:12:27 10° S 21:17:40 74° E 21:22:54 10° N visible
14 Sep 7.3 22:54:15 10° SW 22:58:56 32° WNW 23:03:36 10° N visible
